ARIANE 1 DEB, 40781

Orbit data source: Space-Track

ARIANE 1 DEB, 40781 is space debris in HEO originally from a launch on Mon, 24 Dec 1979 UTC launched from the French Guiana (FRGUI). Debris objects in space refer to the collection of defunct objects orbiting the Earth. Examples of debris include non-operational satellites, rocket bodies, and fragments generated from explosions, collisions, or faulty payload assembly.

Loading next visibility...
Identifier
40781, 1979-104AJ
Orbit
HEO
Last TLE update
6 days ago
Origin
Manufacturer
Unknown
Mission
Spacecraft
Bus & Motor
Unknown
Mass
Unknown
Launch date (UTC)
1979-12-24 (46 years ago)
Launch vehicle
Unknown
Launch site
French Guiana (FRGUI)
Object type
Payload
Rocket body
Debris
Shape & HBR
Unknown
Radar Cross Section
Medium (>0.1 m² and <1 m²)

Expand to show TLE details & history

TLE from 6 days ago
0 ARIANE 1 DEB
1 40781U 79104AJ  25181.72270085  .00000107  00000-0  62075-3 0  9990
2 40781  18.8442 211.4778 6481681 124.7227 314.0475  3.16221301 12307
Epoch: 2025-06-30T17:20Z
TLE epoch observation values (Epoch: 2025-06-30T17:20:41.353Z)
Latitude
-0.00005°
Longitude
32.35201°
Altitude
11,612.352 km
Speed
4.897 km/s
True Right ascension
14h 06m 12s
True Declination
0° 00' 00"
Sunlit
Object was in daylight at epoch
Visualization orbit readout
Latitude
-11.08378°
Longitude
-5.79655°
Altitude
24,439.457 km
Speed
2.354 km/s
Apparent Right ascension
11h 06m 52s
Apparent Declination
-16° 37' 36"
Sunlit
Object is in daylight
Visualization observer readout
Local Sidereal Time
20:03:07
Azimuth
286.817° WNW
Elevation
-44.002°
Doppler factor
1
Orbital elements
Apogee altitude
25,944.336 km
Perigee altitude
521.691 km
Semi-major axis
19,611.151 km
Eccentricity
0.64817
Inclination
18.8442°
RAAN
211.4778°
Arg. of periapsis
124.7227°
True anomaly
Unknown
Mean anomaly
314.0475°
Eccentric anomaly
Unknown
Mean motion
0.79029 °/min
Orbital period
455.53 mins
BSTAR
0.00062075
Loading maneuver chart data...
Loading SW <> Apogee altitude chart data...
Loading historical data...
Loading historical data...
Loading historical data...
Loading historical data...
Loading historical data...
Loading historical data...
Loading historical data...

ARIANE 1 DEB Visibility forecast

Observer location: undefined°, undefined°

Span
Click to sort rows by Start time (UTC) header in descending order
Start Az.
Max El. time (UTC)
Max El. Az.
Max El.
End time (UTC)
End Az.
372 mins2025-07-06 19:26:20.765Z191.943° SSW2025-07-07 00:49:20.765Z163.761° S28.404°2025-07-07 01:38:20.765Z116.014° SE
|